Find Starlink 30156

NORAD ID: 57466 Int'l Des: 2023-107 Owner: SPXS Country: US Constellation: starlink decayed
LEOCIRCULAR

Historical Track — Oct 17, 2023

正在加载3D地球...

关于 Starlink 30156

正在加载描述...

高度历史

Loading altitude history...

两行轨道根数

1 57466U 23107K 23289.66199799 .05260150 92380-5 10210-2 0 9993
2 57466 42.9870 11.5648 0011191 13.8816 136.9823 16.30550441 13943
Epoch: Oct 16, 2023 • Age: 22851 hours

当前状态

Position data unavailable
发射日期 Jul 28, 2023
运行时间 2.8 years
衰减日期 Oct 17, 2023
类型 internet

技术详情

分类 Payload
质量 730.00 kg
干质量 700.00 kg
总质量 730.00 kg
长度 0.30 m
直径 4.10 m
跨度 29.00 m
形状 Box + pan
制造商 SPXS
平台类型 Starlink V2M
阶段状态 Unknown Transfer Status
所有者/国家 SPXS/US

Most Searched